Regional Weather Roundup
Issued by NWS Grand Forks, ND

Home | Current Version | Previous Version | Graphics & Text | Print | Product List | Glossary On
Versions: 1 2 3 4 5 6 7 8 9 10 11 12 13 14 15 16 17 18 19 20 21 22 23 24 25 26 27 28 29 30 31 32 33 34 35 36 37 38 39 40 41 42 43 44 45 46 47 48 49 50
000
ASUS43 KFGF 180431
RWRFGF
PRAIRIE TO PINES  WEATHER ROUNDUP
NATIONAL WEATHER SERVICE EASTERN NORTH DAKOTA/GRAND FORKS ND
1000 PM CST FRI NOV 17 2017

 **SATELLITE DATA USED TO AUGMENT SKY COVER AT AUTOMATED STATIONS**
 *****  WEATHER ACROSS EASTERN NORTH DAKOTA  *****

CITY           SKY/WX    TMP DP  RH WIND       PRES   REMARKS
GRAND FORKS    MOCLDY    16  13  88 NW7       29.79F WCI   6
GRAND FRKS AFB CLEAR     14  11  88 N7        29.79S WCI   4
GRAND FRKS NWS   N/A     18 N/A N/A NW3         N/A
DEVILS LAKE    FAIR      14  11  87 W6        29.80R WCI   5
FARGO          FAIR      24  17  74 N8        29.79R WCI  15
WAHPETON ARPT  NOT AVBL
$$

 ***** WEATHER ACROSS CENTRAL AND WESTERN NORTH DAKOTA  *****

CITY           SKY/WX    TMP DP  RH WIND       PRES   REMARKS
BISMARCK       FAIR      26  23  88 CALM      29.78R
MINOT          FAIR      17  12  80 NW10      29.79R WCI   5
JAMESTOWN      FAIR      19  16  88 CALM      29.78R
MINOT AFB      FAIR      14  10  83 NW8       29.78R WCI   3
GARRISON         N/A     22  18  85 N5        29.77R WCI  16
WILLISTON      FAIR      16  10  77 N14       29.84R WCI   2
DICKINSON      FAIR      26  25  96 W7        29.75R WCI  18
HETTINGER      FAIR      26  23  88 NW5       29.78R WCI  20
$$

 *****  OTHER AIRPORT OBSERVATIONS IN OUR AREA  *****

CITY           SKY/WX    TMP DP  RH WIND       PRES   REMARKS
WALHALLA       FAIR      12  12 100 CALM      29.81R
GRAFTON AIRPOR FAIR      12  10  92 W6        29.83R WCI   3
VALLEY CITY AR FAIR      19  19 100 NW9       29.80R WCI   9
CANDO          FAIR      10  10 100 CALM      29.81R
CAVALIER APRT  FAIR       9   5  85 CALM      29.81R
GWINNER          N/A     25  18  74 N6        29.80R WCI  18
SHEYENNE NWR     N/A     25  19  77 N5        29.95S WCI  19
ROLLA          FAIR      14  10  85 N7        29.76S WCI   4
 ***** THE ABOVE OBSERVATIONS ARE NON NWS ARE NOT QUALITY
       CONTROLLED AND MAY MIS-REPORT RAIN FOR SNOW...
$$

  *****  WEATHER ACROSS NORTHERN MINNESOTA  *****

CITY           SKY/WX    TMP DP  RH WIND       PRES   REMARKS
FLAG ISLAND    FAIR      16  12  86 W8        29.75R WCI   5
WARROAD        FAIR      16  10  79 NW5       29.77R WCI   9
ROSEAU         FAIR      16  12  86 W5        29.77R WCI   9
HALLOCK        FAIR      10   7  85 CALM      29.80R
THF RVR FALLS  FAIR      16  14  92 NW7       29.78R WCI   6
BAUDETTE       FAIR      19  14  81 NW9       29.74R WCI   8
WASKISH        FAIR      21  18  86 NW5       29.74R WCI  15
CROOKSTON      FAIR      18  16  93 N3        29.81R
STEPHEN NDAWN    N/A     14  10  85 NW3         N/A
GREENBUSH NDAW   N/A     12  10  92 W3          N/A
$$
  *****  WEATHER ACROSS CENTRAL AND WEST MINNESOTA  *****

CITY           SKY/WX    TMP DP  RH WIND       PRES   REMARKS
FOSSTON        FAIR      18  14  86 N5        29.76S WCI  11
BEMIDJI        FAIR      21  17  83 NW7       29.74R WCI  13
PARK RAPIDS    FAIR      28  21  75 NW7       29.71R WCI  21
ELBOW LAKE     FAIR      27  21  80 W12       29.75R WCI  16
WADENA         FAIR      28  25  86 NW7       29.71F WCI  21
DETROIT LAKES  FAIR      23  19  86 NW9       29.76R WCI  13
MOORHEAD       FAIR      21  18  86 CALM      29.81R
FERGUS FALLS   FAIR      25  19  80 N15       29.78R WCI  12
MORRIS MN      MOCLDY    28  21  74 NW13G21   29.74R WCI  18
STAPLES        FAIR      30  28  93 NW6       29.70F WCI  24
$$
  *****  WEATHER ELSEWHERE ACROSS MINNESOTA  *****

CITY           SKY/WX    TMP DP  RH WIND       PRES   REMARKS
DULUTH         FAIR      32  32 100 NW5       29.63F
INTRNTL FALLS  FAIR      23  17  78 NW6       29.71R HAZE    WCI  16
ELY            CLOUDY    30  28  93 NW3       29.64S
CLOQUET        FAIR      32  30  93 NW3       29.65S FOG
WHEATON        FAIR      27  19  74 NW12      29.81R WCI  16
BRAINERD       FAIR      33  30  88 NW5       29.70R
HIBBING        CLOUDY    30  27  88 N8        29.67R WCI  22
ALEXANDRIA     CLOUDY    32  27  81 N9        29.70R WCI  24
SAINT CLOUD    FAIR      32  32 100 W3        29.67S FOG
MINNEAPOLIS    MOCLDY    37  35  92 VRB7      29.67R
$$

  *****  WEATHER ACROSS SOUTH DAKOTA  *****

CITY           SKY/WX    TMP DP  RH WIND       PRES   REMARKS
SIOUX FALLS    CLOUDY    38  32  79 N9        29.68R
BROOKINGS      CLOUDY    33  30  88 N10       29.72R WCI  25
WATERTOWN      CLOUDY    31  25  78 N8        29.73S WCI  23
HURON          CLOUDY    35  24  64 N8        29.75R
SISSETON         N/A     28  21  75 NW10      29.76S WCI  19
ABERDEEN       FAIR      29  20  69 N7        29.80R WCI  22
MITCHELL       CLOUDY    39  30  70 N10       29.76R
PIERRE         CLOUDY    37  34  89 NW6       29.78R
MOBRIDGE       FAIR      34  26  72 N5        29.74R
RAPID CITY     CLOUDY    35  33  92 NW7       29.82R
$$

  *****  SOME WEATHER IN NEARBY STATES *****

CITY           SKY/WX    TMP DP  RH WIND       PRES   REMARKS
GLASGOW MT     CLOUDY    20  15  81 N15       29.85R WCI   6
GREAT FALLS MT FAIR      31  15  52 SW18      29.92R WCI  19
CHEYENNE WY    FAIR      35  22  58 NW12G24   29.79R
SCOTTSBLUFF NE CLOUDY    40  30  67 NW20G25   29.81R
OMAHA NE       FAIR      45  38  76 NW5       29.55F
DES MOINES IA  FOG       48  47  96 N9        29.55R VSB 3/4
DAVENPORT IA   CLOUDY    47  45  93 CALM      29.57F FOG
CHICAGO IL     LGT RAIN  46  43  89 SW15      29.58F FOG
EAU CLAIRE WI  CLOUDY    36  35  96 CALM      29.63F FOG
LA CROSSE WI   LGT RAIN  39  38  96 N6        29.62F FOG
$$

  *****  SOME NATIONAL WEATHER *****

CITY           SKY/WX    TMP DP  RH WIND       PRES   REMARKS
LA GUARDIA NY  FAIR      41  16  36 W7        30.07F
RALEIGH NC     FAIR      36  33  89 CALM      30.15F
ATLANTA GA     FAIR      53  44  71 SE3       30.09S
NEW ORLEANS LA FAIR      67  65  93 SE9       30.02S
OKLAHOMA CITY  MOCLDY    74  57  55 S21       29.57F
ALBUQUERQUE NM MOCLDY    56  39  53 VRB5      29.99S
SALT LAKE CITY MOCLDY    36  26  67 N5        30.25R
LOS ANGELES CA FAIR      64  58  80 W13       30.06R
BOISE ID       FAIR      34  23  64 CALM      30.27R
SEATTLE WA     MOCLDY    44  38  79 S12       30.27R
$$

*** WEATHER ACROSS MANITOBA...SASKATCHEWAN AND ONTARIO ***
                ***ONTARIO***

CITY           SKY/WX    TMP DP  RH WIND       PRES   REMARKS
GERALDTON      CLOUDY    32  32 100 VRB2      29.59F
THUNDER BAY    CLOUDY    34  32  93 W3        29.64S
SIOUX LOOKOUT  CLEAR     19  18  93 N5        29.66R WCI  13
TORONTO        MOCLDY    36  28  75 SE9       29.88F
BIG TROUT LK   CLOUDY    16  12  86 W12       29.60R WCI   3
PICKLE LAKE    NOT AVBL
DRYDEN         CLEAR     18  16  93 W7        29.68R WCI   8
KENORA         PTCLDY    18  12  79 NW7       29.71R WCI   8
$$
                *** MANITOBA***

CITY           SKY/WX    TMP DP  RH WIND       PRES   REMARKS
BRANDON        PTCLDY     3  -2  78 W9        29.78S WCI -11
DAUPHIN        CLOUDY    16  10  79 W10       29.78R WCI   3
ISLAND LAKE    MOCLDY    14   9  79 W12G17    29.66R WCI   0
PILOT MOUND      N/A     12   7  79 W6          N/A  WCI   3
THE PAS        FLURRIES  12   5  73 W13       29.72R WCI  -3
THOMPSON       FLURRIES  10   5  79 W8        29.57R WCI  -1
WINNIPEG       CLEAR      9   5  85 W8        29.79R WCI  -4
LYNN LAKE      PTCLDY     5   0  78 NW15G31   29.55R WCI -13
CHURCHILL      LGT SNOW   5   1  85 W20       29.39R DRFTSNOWWCI -15
GILLAM         FLURRIES   9   3  78 SW10      29.52R WCI  -6
$$
                ***SASKATCHEWAN***

CITY           SKY/WX    TMP DP  RH WIND       PRES   REMARKS
ESTEVAN        PTCLDY     3   0  85 NW10      29.83R WCI -12
KINDERSLEY     PTCLDY     3   0  85 W5        29.90R WCI  -6
LLOYDMINSTER   CLEAR     -4  -8  84 W6        29.86R WCI -16
PRINCE ALBERT  CLEAR      0  -4  85 W7        29.87R WCI -13
REGINA         LGT SNOW  12  10  92 W10       29.86R WCI  -1
YORKTON        CLOUDY    12   7  79 W8        29.80R WCI   1
N. BATTLEFORD  CLEAR      0  -6  78 W9        29.93R WCI -16
LA RONGE       FLURRIES  10   3  72 W15G21    29.77R WCI  -6
SASKATOON      CLEAR      0  -6  78 W7        29.90R WCI -13
SWIFT CURRENT  PTCLDY     9   5  85 W15       29.86R WCI  -8
$$
NOTE: THESE ARE AUTOMATED STATIONS WITH LIMITED QUALITY CONTROL
      "FAIR" INDICATES FEW OR NO CLOUDS BELOW 12,000 FEET WITH NO
      SIGNIFICANT WEATHER AND/OR OBSTRUCTIONS TO VISIBILITY.
      SKY/WX - SKY CONDITION AND SIGNIFICANT WEATHER.
      TMP - AIR TEMPERATURE.    DP   - DEWPOINT TEMPERATURE.
      RH  - RELATIVE HUMIDITY.  PRES - PRESSURE.
      HX  - HEAT INDEX.         WCI  - WIND CHILL INDEX.
$




USA.gov is the U.S. government's official web portal to all federal, state and local government web resources and services.